Starlink 30965

operational
NORAD ID: 58477 Int'l Des: 2023-186 Owner: SPXS Country: US Constellation: starlink
LEOCIRCULAR

关于 Starlink 30965

正在加载描述...

实时位置

正在加载3D地球...

即将过境

高度历史

Altitude vs Time

uPlot chart will show altitude changes over time

两行轨道根数

1 58477U 23186E 25305.60138971 .00000261 00000-0 34366-4 0 9996
2 58477 43.0051 30.4462 0001347 267.0664 93.0024 15.02530862106738
Epoch: Nov 1, 2025 • Age: 9 hours

当前状态

高度 570.0 km
速度 7.58 km/s
星下点 -39.25°S, 69.35°W
发射日期 Dec 3, 2023
运行时间 1.9 years
类型 internet

技术详情

分类 Payload
质量 730.00 kg
干质量 700.00 kg
总质量 730.00 kg
长度 0.30 m
直径 4.10 m
跨度 29.00 m
形状 Box + pan
制造商 SPXS
平台类型 Starlink V2M
阶段状态 In Orbit
所有者/国家 SPXS/US

大型星座

Loading constellations...